Time,TemperatureF,DewpointF,PressureIn,WindDirection,WindDirectionDegrees,WindSpeedMPH,WindSpeedGustMPH,Humidity,HourlyPrecipIn,Conditions,Clouds,dailyrainin,SoftwareType,DateUTC
2013-06-30 00:00:00,62.1,61.5,29.75,NNW,329,0.0,1.0,98,0.00,,SKC,0.00,VWS V14.01,2013-06-30 04:00:00,
2013-06-30 00:30:00,63.3,62.7,29.75,NW,326,0.0,1.0,98,0.00,,SKC,0.00,VWS V14.01,2013-06-30 04:30:00,
2013-06-30 01:00:00,65.3,64.4,29.74,North,350,0.0,1.0,97,0.00,,SKC,0.00,VWS V14.01,2013-06-30 05:00:00,
2013-06-30 01:30:00,65.4,64.5,29.75,NNE,15,0.0,1.0,97,0.24,,SKC,0.24,VWS V14.01,2013-06-30 05:30:00,
2013-06-30 02:00:00,62.9,61.8,29.74,WNW,288,0.0,1.0,96,0.62,,SKC,0.62,VWS V14.01,2013-06-30 06:00:00,
2013-06-30 02:30:00,61.2,60.3,29.75,WNW,288,0.0,0.0,97,0.62,,SKC,0.62,VWS V14.01,2013-06-30 06:30:00,
2013-06-30 03:00:00,60.0,59.4,29.74,WNW,288,0.0,0.0,98,0.38,,SKC,0.62,VWS V14.01,2013-06-30 07:00:00,
2013-06-30 03:30:00,59.7,59.1,29.74,WNW,288,0.0,0.0,98,0.00,,SKC,0.62,VWS V14.01,2013-06-30 07:30:00,
2013-06-30 04:00:00,59.5,59.2,29.73,WNW,288,0.0,0.0,99,0.00,,SKC,0.62,VWS V14.01,2013-06-30 08:00:00,
2013-06-30 04:30:00,59.9,59.6,29.73,WNW,288,0.0,0.0,99,0.00,,SKC,0.62,VWS V14.01,2013-06-30 08:30:00,
2013-06-30 05:00:00,59.7,59.4,29.73,WNW,288,0.0,0.0,99,0.00,,SKC,0.62,VWS V14.01,2013-06-30 09:00:00,
2013-06-30 05:30:00,59.8,59.5,29.75,WNW,288,0.0,0.0,99,0.00,,SKC,0.62,VWS V14.01,2013-06-30 09:30:00,
2013-06-30 06:00:00,59.3,59.0,29.76,WNW,288,0.0,0.0,99,0.00,,SKC,0.62,VWS V14.01,2013-06-30 10:00:00,
2013-06-30 06:30:00,59.2,58.9,29.77,WNW,288,0.0,0.0,99,0.00,,SKC,0.62,VWS V14.01,2013-06-30 10:30:00,
2013-06-30 07:00:00,59.3,59.0,29.78,WNW,288,0.0,0.0,99,0.00,,SKC,0.62,VWS V14.01,2013-06-30 11:00:00,
2013-06-30 07:30:00,59.7,59.4,29.79,West,260,0.0,1.0,99,0.00,,SKC,0.62,VWS V14.01,2013-06-30 11:30:00,
2013-06-30 08:00:00,60.2,59.9,29.79,West,260,0.0,0.0,99,0.00,,SKC,0.62,VWS V14.01,2013-06-30 12:00:00,
2013-06-30 08:30:00,61.6,61.3,29.80,West,260,0.0,0.0,99,0.00,,SKC,0.62,VWS V14.01,2013-06-30 12:30:00,
2013-06-30 09:00:00,62.7,62.4,29.80,WSW,257,0.0,0.0,99,0.00,,SKC,0.62,VWS V14.01,2013-06-30 13:00:00,
2013-06-30 09:30:00,63.7,63.4,29.81,WSW,257,0.0,0.0,99,0.00,,SKC,0.62,VWS V14.01,2013-06-30 13:30:00,
2013-06-30 10:00:00,68.3,67.7,29.81,ESE,111,0.0,1.0,98,0.00,,SKC,0.62,VWS V14.01,2013-06-30 14:00:00,
2013-06-30 10:30:00,72.2,69.4,29.80,ESE,111,0.0,1.0,91,0.00,,SKC,0.62,VWS V14.01,2013-06-30 14:30:00,
2013-06-30 11:00:00,74.5,70.0,29.79,North,356,0.0,1.0,86,0.00,,SKC,0.62,VWS V14.01,2013-06-30 15:00:00,
2013-06-30 11:30:00,73.2,69.1,29.80,WNW,296,0.0,3.0,87,0.00,,SKC,0.62,VWS V14.01,2013-06-30 15:30:00,
2013-06-30 12:00:00,73.5,69.7,29.80,SE,125,0.0,3.0,88,0.00,,SKC,0.62,VWS V14.01,2013-06-30 16:00:00,
2013-06-30 12:30:00,75.6,69.7,29.80,SE,137,1.0,4.0,82,0.00,,SKC,0.62,VWS V14.01,2013-06-30 16:30:00,
2013-06-30 13:00:00,76.9,68.4,29.79,SE,131,0.0,7.0,75,0.00,,SKC,0.62,VWS V14.01,2013-06-30 17:00:00,
2013-06-30 13:30:00,78.0,67.8,29.79,SE,124,0.0,6.0,71,0.00,,SKC,0.62,VWS V14.01,2013-06-30 17:30:00,
2013-06-30 14:00:00,76.1,66.8,29.79,SSW,197,0.0,6.0,73,0.00,,SKC,0.62,VWS V14.01,2013-06-30 18:00:00,
2013-06-30 14:30:00,76.3,66.2,29.78,ENE,75,1.0,9.0,71,0.00,,SKC,0.62,VWS V14.01,2013-06-30 18:30:00,
2013-06-30 15:00:00,75.1,64.7,29.77,SSW,195,2.0,4.0,70,0.00,,SKC,0.62,VWS V14.01,2013-06-30 19:00:00,
2013-06-30 15:30:00,74.9,65.7,29.78,East,89,1.0,3.0,73,0.00,,SKC,0.62,VWS V14.01,2013-06-30 19:30:00,
2013-06-30 16:00:00,75.3,67.2,29.78,ENE,69,2.0,5.0,76,0.00,,SKC,0.62,VWS V14.01,2013-06-30 20:00:00,
2013-06-30 16:30:00,73.8,66.5,29.79,South,169,0.0,6.0,78,0.00,,SKC,0.62,VWS V14.01,2013-06-30 20:30:00,
2013-06-30 17:00:00,74.4,66.3,29.78,ESE,115,2.0,4.0,76,0.00,,SKC,0.62,VWS V14.01,2013-06-30 21:00:00,
2013-06-30 17:30:00,73.9,66.6,29.78,NNW,331,0.0,2.0,78,0.00,,SKC,0.62,VWS V14.01,2013-06-30 21:30:00,
2013-06-30 18:00:00,72.9,67.1,29.79,SSE,153,0.0,3.0,82,0.00,,SKC,0.62,VWS V14.01,2013-06-30 22:00:00,
2013-06-30 18:30:00,71.3,66.9,29.80,SE,124,0.0,0.0,86,0.00,,SKC,0.62,VWS V14.01,2013-06-30 22:30:00,
2013-06-30 19:00:00,70.2,66.2,29.80,ESE,117,0.0,1.0,87,0.00,,SKC,0.62,VWS V14.01,2013-06-30 23:00:00,
2013-06-30 19:30:00,69.0,65.9,29.79,SSE,154,0.0,1.0,90,0.00,,SKC,0.62,VWS V14.01,2013-06-30 23:30:00,
2013-06-30 20:00:00,67.6,66.4,29.81,South,171,0.0,1.0,96,0.32,,SKC,0.94,VWS V14.01,2013-07-01 00:00:00,
2013-06-30 20:30:00,64.2,62.7,29.84,ESE,113,2.0,7.0,95,0.53,,SKC,1.15,VWS V14.01,2013-07-01 00:30:00,
2013-06-30 21:00:00,63.3,62.4,29.83,SE,142,0.0,2.0,97,0.68,,SKC,1.30,VWS V14.01,2013-07-01 01:00:00,
2013-06-30 21:30:00,64.3,63.7,29.84,East,84,0.0,1.0,98,0.48,,SKC,1.42,VWS V14.01,2013-07-01 01:30:00,
2013-06-30 22:00:00,64.9,64.0,29.85,SW,225,0.0,4.0,97,0.37,,SKC,1.52,VWS V14.01,2013-07-01 02:00:00,
2013-06-30 22:30:00,64.1,63.2,29.86,SE,141,0.0,4.0,97,0.52,,SKC,1.82,VWS V14.01,2013-07-01 02:30:00,
2013-06-30 23:00:00,63.5,62.9,29.86,NNW,336,0.0,2.0,98,0.41,,SKC,1.83,VWS V14.01,2013-07-01 03:00:00,
2013-06-30 23:30:00,63.5,62.9,29.86,SE,129,0.0,1.0,98,0.32,,SKC,1.84,VWS V14.01,2013-07-01 03:30:00,